Overview Statistics Trail Chart Weather Telemetry Raw packets
 

This is the latest recevied weather packets stored in our database for station/object YD1OCG-15. If no packets are shown the sender has not sent any weather packets the latest 10 day(s).

<< 4 5 6 7 8 9 10 >>
Time Temp. Humidity Pressure Rain* Wind** Luminosity Snow
1788332183 30.56° C 65% 1012 hPa - - - -
1788330523 31.11° C 65% 1012 hPa - - - -
1788328583 30.56° C 65% 1013 hPa - - - -
1788324983 30.56° C 63% 1014 hPa - - - -
1788323183 30° C 65% 1014 hPa - - - -
1788321384 29.44° C 66% 1015 hPa - - - -
1788319584 29.44° C 67% 1016 hPa - - - -
1788317784 28.33° C 52% 1016 hPa - - - -
1788315983 27.78° C 55% 1016 hPa - - - -
1788314184 27.22° C 58% 1017 hPa - - - -
1788312383 27.22° C 56% 1016 hPa - - - -
1788310585 26.67° C 57% 1017 hPa - - - -
1788308783 26.11° C 72% 1016 hPa - - - -
1788306983 26.11° C 72% 1016 hPa - - - -
1788303383 25.56° C 76% 1016 hPa - - - -
1788301584 26.11° C 80% 1015 hPa - - - -
1788299783 26.11° C 80% 1015 hPa - - - -
1788297983 26.11° C 81% 1015 hPa - - - -
1788296183 26.67° C 80% 1015 hPa - - - -
1788294384 26.11° C 82% 1014 hPa - - - -
1788292584 26.67° C 81% 1015 hPa - - - -
1788290783 26.11° C 80% 1014 hPa - - - -
1788288983 26.67° C 81% 1015 hPa - - - -
1788287183 26.67° C 83% 1015 hPa - - - -
1788285384 26.67° C 83% 1015 hPa - - - -

* Rain since midnight (hover to see other rain measurements)
** Current wind speed in m/s (hover to see current wind gust speed)